Three Rivers, MI

10:40 PM EDT on June 19, 2018 (GMT -0400)
Three Rivers Municipal-Haines

Weather History for KHAI - October, 2017

Change the Weather History Date:

Thursday, October 19, 2017

  Actual Average Record
Temperature  
Mean Temperature 56 °F -  
Max Temperature 69 °F 57 °F 84 °F (1953)
Min Temperature 43 °F 36 °F 21 °F (1972)
Degree Days  
Heating Degree Days 9    
Growing Degree Days 6 (Base 50)    
Moisture  
Dew Point 41 °F    
Average Humidity 61    
Maximum Humidity 85    
Minimum Humidity 25    
Precipitation  
Precipitation 0.00 in - - ()
Sea Level Pressure  
Sea Level Pressure 30.14 in    
Wind  
Wind Speed 6 mph (WSW)    
Max Wind Speed 12 mph    
Max Gust Speed -    
Visibility 10 miles    
Events      
Averages and records for this station are not official NWS values.
T = Trace of Precipitation, MM = Missing Value Source: NWS Daily Summary

Daily Weather History Graph

Daily Weather History Graph

Search for Another Location

Airport or City:

Astronomy

Oct. 19, 2017 Rise Set
Actual Time 7:59 AM EDT 6:54 PM EDT
Civil Twilight 7:31 AM EDT 7:22 PM EDT
Nautical Twilight 6:58 AM EDT 7:54 PM EDT
Astronomical Twilight 6:26 AM EDT 8:27 PM EDT
Moon 7:37 AM EDT (10/19) 7:16 PM EDT (10/19)
Length of Visible Light 11h 51m
Length of Day
10h 54m
Waning Crescent, 0% of the Moon is Illuminated
Oct 19
Waning Crescent
Oct 19
New
Oct 27
First Quarter
Nov 4
Full
Nov 10
Last Quarter

Hourly Weather History & Observations

Time (EDT) Temp. Dew Point Humidity Pressure Visibility Wind Dir Wind Speed Gust Speed Precip Events Conditions
12:16 AM 53.1 °F 43.9 °F 71% 30.10 in 10.0 mi SSW 6.9 mph - N/A   Clear
12:36 AM 53.8 °F 44.1 °F 70% 30.10 in 10.0 mi SW 6.9 mph - N/A   Clear
1:16 AM 54.5 °F 44.2 °F 68% 30.09 in 10.0 mi SW 6.9 mph - N/A   Clear
1:35 AM 54.5 °F 44.4 °F 69% 30.09 in 10.0 mi SW 8.1 mph - N/A   Clear
1:56 AM 53.8 °F 44.6 °F 71% 30.09 in 10.0 mi SSW 8.1 mph - N/A   Clear
2:16 AM 54.0 °F 44.6 °F 71% 30.08 in 10.0 mi SSW 8.1 mph - N/A   Clear
2:35 AM 54.0 °F 44.8 °F 71% 30.08 in 10.0 mi SSW 8.1 mph - N/A   Clear
2:56 AM 54.0 °F 44.8 °F 71% 30.08 in 10.0 mi SSW 6.9 mph - N/A   Clear
3:16 AM 53.8 °F 45.0 °F 72% 30.07 in 10.0 mi SSW 9.2 mph - N/A   Clear
3:35 AM 53.1 °F 45.0 °F 74% 30.07 in 10.0 mi SSW 8.1 mph - N/A   Clear
3:56 AM 52.5 °F 45.0 °F 75% 30.07 in 10.0 mi SSW 6.9 mph - N/A   Clear
4:16 AM 52.5 °F 45.0 °F 75% 30.07 in 10.0 mi SSW 6.9 mph - N/A   Clear
4:35 AM 52.7 °F 45.5 °F 76% 30.06 in 10.0 mi SW 8.1 mph - N/A   Clear
4:56 AM 53.1 °F 45.5 °F 75% 30.07 in 10.0 mi SW 9.2 mph - N/A   Clear
5:16 AM 52.5 °F 45.5 °F 77% 30.07 in 10.0 mi SW 9.2 mph - N/A   Clear
5:35 AM 52.7 °F 45.5 °F 76% 30.07 in 10.0 mi SW 8.1 mph - N/A   Clear
5:56 AM 52.7 °F 45.5 °F 76% 30.07 in 10.0 mi SW 5.8 mph - N/A   Clear
6:16 AM 51.8 °F 45.7 °F 80% 30.07 in 10.0 mi SW 6.9 mph - N/A   Clear
6:35 AM 51.8 °F 45.9 °F 80% 30.07 in 10.0 mi SW 8.1 mph - N/A   Clear
6:56 AM 52.3 °F 45.7 °F 78% 30.08 in 10.0 mi SW 5.8 mph - N/A   Clear
7:15 AM 52.2 °F 45.9 °F 79% 30.09 in 10.0 mi SW 4.6 mph - N/A   Clear
7:36 AM 52.0 °F 45.9 °F 80% 30.09 in 10.0 mi SW 5.8 mph - N/A   Clear
7:56 AM 52.0 °F 46.0 °F 80% 30.09 in 10.0 mi SW 4.6 mph - N/A   Clear
8:15 AM 51.6 °F 46.0 °F 81% 30.10 in 10.0 mi SW 4.6 mph - N/A   Clear
8:36 AM 51.8 °F 46.4 °F 82% 30.10 in 10.0 mi SW 4.6 mph - N/A   Clear
8:56 AM 53.1 °F 47.3 °F 81% 30.11 in 10.0 mi SW 3.5 mph - N/A   Clear
9:15 AM 54.0 °F 47.3 °F 78% 30.12 in 10.0 mi WSW 3.5 mph - N/A   Clear
9:36 AM 54.7 °F 47.7 °F 77% 30.13 in 10.0 mi WSW 3.5 mph - N/A   Clear
9:56 AM 55.4 °F 48.2 °F 77% 30.13 in 10.0 mi West 3.5 mph - N/A   Clear
10:15 AM 56.5 °F 48.7 °F 75% 30.15 in 10.0 mi West 5.8 mph - N/A   Clear
10:36 AM 58.1 °F 49.8 °F 74% 30.15 in 10.0 mi West 5.8 mph - N/A   Clear
10:56 AM 60.1 °F 50.9 °F 72% 30.16 in 10.0 mi West 8.1 mph - N/A   Clear
11:15 AM 61.0 °F 48.4 °F 63% 30.16 in 10.0 mi West 8.1 mph - N/A   Clear
11:36 AM 62.2 °F 46.2 °F 56% 30.16 in 10.0 mi WNW 6.9 mph - N/A   Clear
11:56 AM 63.5 °F 46.4 °F 54% 30.17 in 10.0 mi WNW 9.2 mph - N/A   Clear
12:15 PM 64.0 °F 46.2 °F 52% 30.17 in 10.0 mi NW 9.2 mph - N/A   Clear
12:36 PM 65.5 °F 47.1 °F 51% 30.17 in 10.0 mi West 5.8 mph - N/A   Clear
12:56 PM 66.6 °F 44.8 °F 45% 30.17 in 10.0 mi WNW 9.2 mph - N/A   Clear
1:15 PM 67.1 °F 42.1 °F 40% 30.17 in 10.0 mi West 10.4 mph - N/A   Clear
1:36 PM 67.6 °F 40.3 °F 37% 30.17 in 10.0 mi WNW 11.5 mph - N/A   Clear
2:01 PM 68.2 °F 38.7 °F 34% 30.17 in 10.0 mi NW 9.2 mph - N/A   Clear
2:36 PM 69.3 °F 34.9 °F 28% 30.15 in 10.0 mi NW 9.2 mph - N/A   Clear
2:56 PM 68.9 °F 32.9 °F 26% 30.16 in 10.0 mi WNW 6.9 mph - N/A   Clear
3:15 PM 68.9 °F 31.6 °F 25% 30.16 in 10.0 mi NW 9.2 mph - N/A   Clear
3:36 PM 69.1 °F 31.6 °F 25% 30.16 in 10.0 mi WNW 11.5 mph - N/A   Clear
3:56 PM 68.2 °F 32.7 °F 27% 30.16 in 10.0 mi West 8.1 mph - N/A   Clear
4:15 PM 68.0 °F 32.2 °F 26% 30.17 in 10.0 mi WNW 9.2 mph - N/A   Clear
4:36 PM 67.1 °F 31.3 °F 26% 30.17 in 10.0 mi West 9.2 mph - N/A   Clear
4:56 PM 66.9 °F 31.3 °F 27% 30.17 in 10.0 mi WNW 9.2 mph - N/A   Clear
5:15 PM 66.0 °F 29.3 °F 25% 30.17 in 10.0 mi West 8.1 mph - N/A   Clear
5:36 PM 64.2 °F 32.4 °F 30% 30.17 in 10.0 mi WNW 8.1 mph - N/A   Clear
5:55 PM 63.7 °F 31.6 °F 30% 30.18 in 10.0 mi WNW 5.8 mph - N/A   Clear
6:16 PM 61.7 °F 34.0 °F 35% 30.18 in 10.0 mi WNW 4.6 mph - N/A   Clear
6:35 PM 58.8 °F 31.6 °F 36% 30.18 in 10.0 mi West 4.6 mph - N/A   Clear
6:56 PM 57.7 °F 33.1 °F 39% 30.18 in 10.0 mi Calm Calm - N/A   Clear
7:16 PM 56.5 °F 31.8 °F 39% 30.17 in 10.0 mi Calm Calm - N/A   Clear
7:35 PM 52.3 °F 37.9 °F 58% 30.18 in 10.0 mi Calm Calm - N/A   Clear
7:56 PM 51.1 °F 36.1 °F 57% 30.19 in 10.0 mi Calm Calm - N/A   Clear
8:16 PM 50.7 °F 37.2 °F 60% 30.19 in 10.0 mi Calm Calm - N/A   Clear
8:35 PM 49.6 °F 36.3 °F 60% 30.20 in 10.0 mi Calm Calm - N/A   Clear
8:56 PM 49.1 °F 36.7 °F 62% 30.20 in 10.0 mi Calm Calm - N/A   Clear
9:16 PM 48.7 °F 35.8 °F 61% 30.20 in 10.0 mi Calm Calm - N/A   Clear
9:35 PM 48.9 °F 36.1 °F 61% 30.20 in 10.0 mi Calm Calm - N/A   Clear
9:56 PM 47.5 °F 37.6 °F 69% 30.21 in 10.0 mi Calm Calm - N/A   Clear
10:16 PM 46.6 °F 37.6 °F 71% 30.21 in 10.0 mi Calm Calm - N/A   Clear
10:35 PM 46.8 °F 36.7 °F 68% 30.21 in 10.0 mi Calm Calm - N/A   Clear
10:56 PM 45.0 °F 37.6 °F 75% 30.20 in 10.0 mi Calm Calm - N/A   Clear
11:16 PM 44.1 °F 38.5 °F 81% 30.20 in 10.0 mi Calm Calm - N/A   Clear
11:35 PM 43.9 °F 39.6 °F 85% 30.21 in 10.0 mi Calm Calm - N/A   Clear
11:56 PM 43.7 °F 39.2 °F 84% 30.21 in 10.0 mi Calm Calm - N/A   Clear